owner,sensor,date,latitude,longitude,dew_point_temperature,qcFlag 
ADCP,ioos:station:wmo:42394:1,2016-01-01T00:30:00Z,28.1570,-89.2400,19.4,11111222 
ADCP,ioos:station:wmo:42394:1,2016-01-01T01:30:00Z,28.1570,-89.2400,19.2,11111222 
ADCP,ioos:station:wmo:42394:1,2016-01-01T02:30:00Z,28.1570,-89.2400,18.5,11111222 
ADCP,ioos:station:wmo:42394:1,2016-01-01T03:30:00Z,28.1570,-89.2400,18.3,11111222 
ADCP,ioos:station:wmo:42394:1,2016-01-01T04:30:00Z,28.1570,-89.2400,18.2,11111222 
ADCP,ioos:station:wmo:42394:1,2016-01-01T05:30:00Z,28.1570,-89.2400,18.2,11111222 
ADCP,ioos:station:wmo:42394:1,2016-01-01T06:30:00Z,28.1570,-89.2400,18.1,11111222 
ADCP,ioos:station:wmo:42394:1,2016-01-01T07:30:00Z,28.1570,-89.2400,18.2,11111222 
ADCP,ioos:station:wmo:42394:1,2016-01-01T08:30:00Z,28.1570,-89.2400,18.3,11111222 
ADCP,ioos:station:wmo:42394:1,2016-01-01T09:30:00Z,28.1570,-89.2400,18.0,11111222 
ADCP,ioos:station:wmo:42394:1,2016-01-01T10:30:00Z,28.1570,-89.2400,17.9,11111222 
ADCP,ioos:station:wmo:42394:1,2016-01-01T11:30:00Z,28.1570,-89.2400,17.8,11111222 
ADCP,ioos:station:wmo:42394:1,2016-01-01T12:30:00Z,28.1570,-89.2400,14.7,11111222 
ADCP,ioos:station:wmo:42394:1,2016-01-01T13:30:00Z,28.1570,-89.2400,13.2,11111222 
ADCP,ioos:station:wmo:42394:1,2016-01-01T14:30:00Z,28.1570,-89.2400,12.9,11111222 
ADCP,ioos:station:wmo:42394:1,2016-01-01T15:30:00Z,28.1570,-89.2400,13.3,11111222 
ADCP,ioos:station:wmo:42394:1,2016-01-01T16:30:00Z,28.1570,-89.2400,15.0,11111222 
ADCP,ioos:station:wmo:42394:1,2016-01-01T17:30:00Z,28.1570,-89.2400,15.3,11111222 
ADCP,ioos:station:wmo:42394:1,2016-01-01T18:30:00Z,28.1570,-89.2400,15.4,11111222 
ADCP,ioos:station:wmo:42394:1,2016-01-01T19:30:00Z,28.1570,-89.2400,14.2,11111222 
ADCP,ioos:station:wmo:42394:1,2016-01-01T20:30:00Z,28.1570,-89.2400,13.1,11111222 
ADCP,ioos:station:wmo:42394:1,2016-01-01T21:30:00Z,28.1570,-89.2400,12.3,11111222 
ADCP,ioos:station:wmo:42394:1,2016-01-01T22:30:00Z,28.1570,-89.2400,11.3,11111222 
ADCP,ioos:station:wmo:42394:1,2016-01-01T23:30:00Z,28.1570,-89.2400,11.8,11111222 
ADCP,ioos:station:wmo:42394:1,2016-01-02T00:30:00Z,28.1570,-89.2400,11.4,11111222 
ADCP,ioos:station:wmo:42394:1,2016-01-02T01:30:00Z,28.1570,-89.2400,10.5,11111222 
ADCP,ioos:station:wmo:42394:1,2016-01-02T02:30:00Z,28.1570,-89.2400,11.3,11111222 
ADCP,ioos:station:wmo:42394:1,2016-01-02T03:30:00Z,28.1570,-89.2400,11.1,11111222 
ADCP,ioos:station:wmo:42394:1,2016-01-02T04:30:00Z,28.1570,-89.2400,11.1,11111222 
ADCP,ioos:station:wmo:42394:1,2016-01-02T05:30:00Z,28.1570,-89.2400,10.6,11111222 
ADCP,ioos:station:wmo:42394:1,2016-01-02T06:30:00Z,28.1570,-89.2400,9.4,11111222 
ADCP,ioos:station:wmo:42394:1,2016-01-02T07:30:00Z,28.1570,-89.2400,10.6,11111222 
ADCP,ioos:station:wmo:42394:1,2016-01-02T08:30:00Z,28.1570,-89.2400,11.2,11111222 
ADCP,ioos:station:wmo:42394:1,2016-01-02T09:30:00Z,28.1570,-89.2400,11.3,11111222 
ADCP,ioos:station:wmo:42394:1,2016-01-02T10:30:00Z,28.1570,-89.2400,10.9,11111222 
ADCP,ioos:station:wmo:42394:1,2016-01-02T11:30:00Z,28.1570,-89.2400,10.1,11111222 
ADCP,ioos:station:wmo:42394:1,2016-01-02T12:30:00Z,28.1570,-89.2400,9.7,11111222 
ADCP,ioos:station:wmo:42394:1,2016-01-02T13:30:00Z,28.1570,-89.2400,9.1,11111222 
ADCP,ioos:station:wmo:42394:1,2016-01-02T14:30:00Z,28.1570,-89.2400,10.2,11111222 
ADCP,ioos:station:wmo:42394:1,2016-01-02T15:30:00Z,28.1570,-89.2400,8.6,11111222 
ADCP,ioos:station:wmo:42394:1,2016-01-02T16:30:00Z,28.1570,-89.2400,10.0,11111222 
ADCP,ioos:station:wmo:42394:1,2016-01-02T17:30:00Z,28.1570,-89.2400,10.0,11111222 
ADCP,ioos:station:wmo:42394:1,2016-01-02T18:30:00Z,28.1570,-89.2400,9.6,11111222 
ADCP,ioos:station:wmo:42394:1,2016-01-02T19:30:00Z,28.1570,-89.2400,9.0,11111222 
ADCP,ioos:station:wmo:42394:1,2016-01-02T20:30:00Z,28.1570,-89.2400,9.2,11111222 
ADCP,ioos:station:wmo:42394:1,2016-01-02T21:30:00Z,28.1570,-89.2400,9.9,11111222 
ADCP,ioos:station:wmo:42394:1,2016-01-02T22:30:00Z,28.1570,-89.2400,10.5,11111222 
ADCP,ioos:station:wmo:42394:1,2016-01-02T23:30:00Z,28.1570,-89.2400,9.6,11111222 
ADCP,ioos:station:wmo:42394:1,2016-01-03T00:30:00Z,28.1570,-89.2400,8.4,11111222 
ADCP,ioos:station:wmo:42394:1,2016-01-03T01:30:00Z,28.1570,-89.2400,8.3,11111222 
ADCP,ioos:station:wmo:42394:1,2016-01-03T02:30:00Z,28.1570,-89.2400,8.6,11111222 
ADCP,ioos:station:wmo:42394:1,2016-01-03T03:30:00Z,28.1570,-89.2400,9.6,11111222 
ADCP,ioos:station:wmo:42394:1,2016-01-03T04:30:00Z,28.1570,-89.2400,9.8,11111222 
ADCP,ioos:station:wmo:42394:1,2016-01-03T05:30:00Z,28.1570,-89.2400,11.0,11111222 
ADCP,ioos:station:wmo:42394:1,2016-01-03T06:30:00Z,28.1570,-89.2400,11.1,11111222 
ADCP,ioos:station:wmo:42394:1,2016-01-03T07:30:00Z,28.1570,-89.2400,12.2,11111222 
ADCP,ioos:station:wmo:42394:1,2016-01-03T08:30:00Z,28.1570,-89.2400,11.9,11111222 
ADCP,ioos:station:wmo:42394:1,2016-01-03T09:30:00Z,28.1570,-89.2400,11.7,11111222 
ADCP,ioos:station:wmo:42394:1,2016-01-03T10:30:00Z,28.1570,-89.2400,11.5,11111222 
ADCP,ioos:station:wmo:42394:1,2016-01-03T11:30:00Z,28.1570,-89.2400,12.2,11111222 
ADCP,ioos:station:wmo:42394:1,2016-01-03T12:30:00Z,28.1570,-89.2400,11.4,11111222 
ADCP,ioos:station:wmo:42394:1,2016-01-03T13:30:00Z,28.1570,-89.2400,11.0,11111222 
ADCP,ioos:station:wmo:42394:1,2016-01-03T14:30:00Z,28.1570,-89.2400,10.8,11111222 
ADCP,ioos:station:wmo:42394:1,2016-01-03T15:30:00Z,28.1570,-89.2400,10.4,11111222 
ADCP,ioos:station:wmo:42394:1,2016-01-03T16:30:00Z,28.1570,-89.2400,9.9,11111222 
ADCP,ioos:station:wmo:42394:1,2016-01-03T17:30:00Z,28.1570,-89.2400,6.7,11111222 
ADCP,ioos:station:wmo:42394:1,2016-01-03T18:30:00Z,28.1570,-89.2400,8.2,11111222 
ADCP,ioos:station:wmo:42394:1,2016-01-03T19:30:00Z,28.1570,-89.2400,7.8,11111222 
ADCP,ioos:station:wmo:42394:1,2016-01-03T20:30:00Z,28.1570,-89.2400,7.6,11111222 
ADCP,ioos:station:wmo:42394:1,2016-01-03T21:30:00Z,28.1570,-89.2400,4.6,11111222 
ADCP,ioos:station:wmo:42394:1,2016-01-03T22:30:00Z,28.1570,-89.2400,5.6,11111222 
ADCP,ioos:station:wmo:42394:1,2016-01-03T23:30:00Z,28.1570,-89.2400,3.4,11111222 
ADCP,ioos:station:wmo:42394:1,2016-01-04T00:30:00Z,28.1570,-89.2400,3.7,11111222 
ADCP,ioos:station:wmo:42394:1,2016-01-04T01:30:00Z,28.1570,-89.2400,2.9,11111222 
ADCP,ioos:station:wmo:42394:1,2016-01-04T02:30:00Z,28.1570,-89.2400,4.7,11111222 
ADCP,ioos:station:wmo:42394:1,2016-01-04T03:30:00Z,28.1570,-89.2400,7.5,11111222 
ADCP,ioos:station:wmo:42394:1,2016-01-04T04:30:00Z,28.1570,-89.2400,7.8,11111222 
ADCP,ioos:station:wmo:42394:1,2016-01-04T05:30:00Z,28.1570,-89.2400,6.9,11111222 
ADCP,ioos:station:wmo:42394:1,2016-01-04T06:30:00Z,28.1570,-89.2400,6.8,11111222 
ADCP,ioos:station:wmo:42394:1,2016-01-04T07:30:00Z,28.1570,-89.2400,6.4,11111222 
ADCP,ioos:station:wmo:42394:1,2016-01-04T08:30:00Z,28.1570,-89.2400,6.6,11111222 
ADCP,ioos:station:wmo:42394:1,2016-01-04T09:30:00Z,28.1570,-89.2400,6.0,11111222 
ADCP,ioos:station:wmo:42394:1,2016-01-04T10:30:00Z,28.1570,-89.2400,5.1,11111222 
ADCP,ioos:station:wmo:42394:1,2016-01-04T11:30:00Z,28.1570,-89.2400,5.9,11111222 
ADCP,ioos:station:wmo:42394:1,2016-01-04T12:30:00Z,28.1570,-89.2400,5.9,11111222 
ADCP,ioos:station:wmo:42394:1,2016-01-04T13:30:00Z,28.1570,-89.2400,5.0,11111222 
ADCP,ioos:station:wmo:42394:1,2016-01-04T14:30:00Z,28.1570,-89.2400,5.6,11111222 
ADCP,ioos:station:wmo:42394:1,2016-01-04T15:30:00Z,28.1570,-89.2400,6.0,11111222 
ADCP,ioos:station:wmo:42394:1,2016-01-04T16:30:00Z,28.1570,-89.2400,4.0,11111222 
ADCP,ioos:station:wmo:42394:1,2016-01-04T17:30:00Z,28.1570,-89.2400,7.2,11111222 
ADCP,ioos:station:wmo:42394:1,2016-01-04T18:30:00Z,28.1570,-89.2400,8.1,11111222 
ADCP,ioos:station:wmo:42394:1,2016-01-04T19:30:00Z,28.1570,-89.2400,6.7,11111222 
ADCP,ioos:station:wmo:42394:1,2016-01-04T20:30:00Z,28.1570,-89.2400,6.3,11111222 
ADCP,ioos:station:wmo:42394:1,2016-01-04T21:30:00Z,28.1570,-89.2400,5.0,11111222 
ADCP,ioos:station:wmo:42394:1,2016-01-04T22:30:00Z,28.1570,-89.2400,5.9,11111222 
ADCP,ioos:station:wmo:42394:1,2016-01-04T23:30:00Z,28.1570,-89.2400,6.2,11111222 
ADCP,ioos:station:wmo:42394:1,2016-01-05T00:30:00Z,28.1570,-89.2400,5.4,11111222 
ADCP,ioos:station:wmo:42394:1,2016-01-05T01:30:00Z,28.1570,-89.2400,7.6,11111222 
ADCP,ioos:station:wmo:42394:1,2016-01-05T02:30:00Z,28.1570,-89.2400,6.8,11111222 
ADCP,ioos:station:wmo:42394:1,2016-01-05T03:30:00Z,28.1570,-89.2400,6.7,11111222 
ADCP,ioos:station:wmo:42394:1,2016-01-05T04:30:00Z,28.1570,-89.2400,6.3,11111222 
ADCP,ioos:station:wmo:42394:1,2016-01-05T05:30:00Z,28.1570,-89.2400,8.0,11111222 
ADCP,ioos:station:wmo:42394:1,2016-01-05T06:30:00Z,28.1570,-89.2400,7.7,11111222 
ADCP,ioos:station:wmo:42394:1,2016-01-05T07:30:00Z,28.1570,-89.2400,7.3,11111222 
ADCP,ioos:station:wmo:42394:1,2016-01-05T08:30:00Z,28.1570,-89.2400,8.4,11111222 
ADCP,ioos:station:wmo:42394:1,2016-01-05T09:30:00Z,28.1570,-89.2400,9.1,11111222 
ADCP,ioos:station:wmo:42394:1,2016-01-05T10:30:00Z,28.1570,-89.2400,9.3,11111222 
ADCP,ioos:station:wmo:42394:1,2016-01-05T11:30:00Z,28.1570,-89.2400,7.6,11111222 
ADCP,ioos:station:wmo:42394:1,2016-01-05T12:30:00Z,28.1570,-89.2400,7.7,11111222 
ADCP,ioos:station:wmo:42394:1,2016-01-05T13:30:00Z,28.1570,-89.2400,6.8,11111222 
ADCP,ioos:station:wmo:42394:1,2016-01-05T14:30:00Z,28.1570,-89.2400,7.8,11111222 
ADCP,ioos:station:wmo:42394:1,2016-01-05T15:30:00Z,28.1570,-89.2400,7.8,11111222 
ADCP,ioos:station:wmo:42394:1,2016-01-05T16:30:00Z,28.1570,-89.2400,9.0,11111222 
ADCP,ioos:station:wmo:42394:1,2016-01-05T17:30:00Z,28.1570,-89.2400,8.3,11111222 
ADCP,ioos:station:wmo:42394:1,2016-01-05T18:30:00Z,28.1570,-89.2400,8.9,11111222 
ADCP,ioos:station:wmo:42394:1,2016-01-05T19:30:00Z,28.1570,-89.2400,9.4,11111222 
ADCP,ioos:station:wmo:42394:1,2016-01-05T20:30:00Z,28.1570,-89.2400,10.3,11111222 
ADCP,ioos:station:wmo:42394:1,2016-01-05T21:30:00Z,28.1570,-89.2400,11.2,11111222 
ADCP,ioos:station:wmo:42394:1,2016-01-05T22:30:00Z,28.1570,-89.2400,10.3,11111222 
ADCP,ioos:station:wmo:42394:1,2016-01-05T23:30:00Z,28.1570,-89.2400,9.9,11111222 
ADCP,ioos:station:wmo:42394:1,2016-01-06T00:30:00Z,28.1570,-89.2400,10.7,11111222 
ADCP,ioos:station:wmo:42394:1,2016-01-06T01:30:00Z,28.1570,-89.2400,10.3,11111222 
ADCP,ioos:station:wmo:42394:1,2016-01-06T02:30:00Z,28.1570,-89.2400,11.8,11111222 
ADCP,ioos:station:wmo:42394:1,2016-01-06T03:30:00Z,28.1570,-89.2400,12.2,11111222 
ADCP,ioos:station:wmo:42394:1,2016-01-06T04:30:00Z,28.1570,-89.2400,12.0,11111222 
ADCP,ioos:station:wmo:42394:1,2016-01-06T05:30:00Z,28.1570,-89.2400,11.7,11111222 
ADCP,ioos:station:wmo:42394:1,2016-01-06T06:30:00Z,28.1570,-89.2400,8.9,11111222 
ADCP,ioos:station:wmo:42394:1,2016-01-06T07:30:00Z,28.1570,-89.2400,12.4,11111222 
ADCP,ioos:station:wmo:42394:1,2016-01-06T08:30:00Z,28.1570,-89.2400,12.2,11111222 
ADCP,ioos:station:wmo:42394:1,2016-01-06T09:30:00Z,28.1570,-89.2400,12.5,11111222 
ADCP,ioos:station:wmo:42394:1,2016-01-06T10:30:00Z,28.1570,-89.2400,12.1,11111222 
ADCP,ioos:station:wmo:42394:1,2016-01-06T11:30:00Z,28.1570,-89.2400,12.2,11111222 
ADCP,ioos:station:wmo:42394:1,2016-01-06T12:30:00Z,28.1570,-89.2400,12.9,11111222 
ADCP,ioos:station:wmo:42394:1,2016-01-06T13:30:00Z,28.1570,-89.2400,12.5,11111222 
ADCP,ioos:station:wmo:42394:1,2016-01-06T14:30:00Z,28.1570,-89.2400,13.2,11111222 
ADCP,ioos:station:wmo:42394:1,2016-01-06T15:30:00Z,28.1570,-89.2400,14.3,11111222 
ADCP,ioos:station:wmo:42394:1,2016-01-06T16:30:00Z,28.1570,-89.2400,14.0,11111222 
ADCP,ioos:station:wmo:42394:1,2016-01-06T17:30:00Z,28.1570,-89.2400,14.7,11111222 
ADCP,ioos:station:wmo:42394:1,2016-01-06T18:30:00Z,28.1570,-89.2400,14.9,11111222 
ADCP,ioos:station:wmo:42394:1,2016-01-06T19:30:00Z,28.1570,-89.2400,15.1,11111222 
ADCP,ioos:station:wmo:42394:1,2016-01-06T20:30:00Z,28.1570,-89.2400,16.0,11111222 
ADCP,ioos:station:wmo:42394:1,2016-01-06T21:30:00Z,28.1570,-89.2400,15.5,11111222 
ADCP,ioos:station:wmo:42394:1,2016-01-06T22:30:00Z,28.1570,-89.2400,15.3,11111222 
ADCP,ioos:station:wmo:42394:1,2016-01-06T23:30:00Z,28.1570,-89.2400,16.1,11111222 
ADCP,ioos:station:wmo:42394:1,2016-01-07T00:30:00Z,28.1570,-89.2400,16.1,11111222 
ADCP,ioos:station:wmo:42394:1,2016-01-07T01:30:00Z,28.1570,-89.2400,15.9,11111222 
ADCP,ioos:station:wmo:42394:1,2016-01-07T02:30:00Z,28.1570,-89.2400,15.3,11111222 
ADCP,ioos:station:wmo:42394:1,2016-01-07T03:30:00Z,28.1570,-89.2400,16.4,11111222 
ADCP,ioos:station:wmo:42394:1,2016-01-07T04:30:00Z,28.1570,-89.2400,14.8,11111222 
ADCP,ioos:station:wmo:42394:1,2016-01-07T05:30:00Z,28.1570,-89.2400,14.9,11111222 
ADCP,ioos:station:wmo:42394:1,2016-01-07T06:30:00Z,28.1570,-89.2400,14.2,11111222 
ADCP,ioos:station:wmo:42394:1,2016-01-07T07:30:00Z,28.1570,-89.2400,14.4,11111222 
ADCP,ioos:station:wmo:42394:1,2016-01-07T08:30:00Z,28.1570,-89.2400,14.7,11111222 
ADCP,ioos:station:wmo:42394:1,2016-01-07T09:30:00Z,28.1570,-89.2400,15.4,11111222 
ADCP,ioos:station:wmo:42394:1,2016-01-07T10:30:00Z,28.1570,-89.2400,15.4,11111222 
ADCP,ioos:station:wmo:42394:1,2016-01-07T11:30:00Z,28.1570,-89.2400,16.0,11111222 
ADCP,ioos:station:wmo:42394:1,2016-01-07T12:30:00Z,28.1570,-89.2400,16.1,11111222 
ADCP,ioos:station:wmo:42394:1,2016-01-07T13:30:00Z,28.1570,-89.2400,16.0,11111222 
ADCP,ioos:station:wmo:42394:1,2016-01-07T14:30:00Z,28.1570,-89.2400,16.7,11111222 
ADCP,ioos:station:wmo:42394:1,2016-01-07T15:30:00Z,28.1570,-89.2400,17.3,11111222 
ADCP,ioos:station:wmo:42394:1,2016-01-07T16:30:00Z,28.1570,-89.2400,17.9,11111222 
ADCP,ioos:station:wmo:42394:1,2016-01-07T17:30:00Z,28.1570,-89.2400,17.2,11111222 
ADCP,ioos:station:wmo:42394:1,2016-01-07T18:30:00Z,28.1570,-89.2400,17.1,11111222 
ADCP,ioos:station:wmo:42394:1,2016-01-07T19:30:00Z,28.1570,-89.2400,17.5,11111222 
ADCP,ioos:station:wmo:42394:1,2016-01-07T20:30:00Z,28.1570,-89.2400,17.2,11111222 
ADCP,ioos:station:wmo:42394:1,2016-01-07T21:30:00Z,28.1570,-89.2400,17.7,11111222 
ADCP,ioos:station:wmo:42394:1,2016-01-07T22:30:00Z,28.1570,-89.2400,18.4,11111222 
ADCP,ioos:station:wmo:42394:1,2016-01-07T23:30:00Z,28.1570,-89.2400,18.1,11111222 
ADCP,ioos:station:wmo:42394:1,2016-01-08T00:30:00Z,28.1570,-89.2400,18.4,11111222 
ADCP,ioos:station:wmo:42394:1,2016-01-08T01:30:00Z,28.1570,-89.2400,18.0,11111222 
ADCP,ioos:station:wmo:42394:1,2016-01-08T02:30:00Z,28.1570,-89.2400,17.4,11111222 
ADCP,ioos:station:wmo:42394:1,2016-01-08T03:30:00Z,28.1570,-89.2400,16.7,11111222 
ADCP,ioos:station:wmo:42394:1,2016-01-08T04:30:00Z,28.1570,-89.2400,16.4,11111222 
ADCP,ioos:station:wmo:42394:1,2016-01-08T05:30:00Z,28.1570,-89.2400,16.0,11111222 
ADCP,ioos:station:wmo:42394:1,2016-01-08T06:30:00Z,28.1570,-89.2400,16.1,11111222 
ADCP,ioos:station:wmo:42394:1,2016-01-08T07:30:00Z,28.1570,-89.2400,15.8,11111222 
ADCP,ioos:station:wmo:42394:1,2016-01-08T08:30:00Z,28.1570,-89.2400,15.5,11111222 
ADCP,ioos:station:wmo:42394:1,2016-01-08T09:30:00Z,28.1570,-89.2400,15.7,11111222 
ADCP,ioos:station:wmo:42394:1,2016-01-08T10:30:00Z,28.1570,-89.2400,15.7,11111222 
ADCP,ioos:station:wmo:42394:1,2016-01-08T11:30:00Z,28.1570,-89.2400,15.7,11111222 
ADCP,ioos:station:wmo:42394:1,2016-01-08T12:30:00Z,28.1570,-89.2400,15.6,11111222 
ADCP,ioos:station:wmo:42394:1,2016-01-08T13:30:00Z,28.1570,-89.2400,15.3,11111222 
ADCP,ioos:station:wmo:42394:1,2016-01-08T14:30:00Z,28.1570,-89.2400,15.6,11111222 
ADCP,ioos:station:wmo:42394:1,2016-01-08T15:30:00Z,28.1570,-89.2400,15.9,11111222 
ADCP,ioos:station:wmo:42394:1,2016-01-08T16:30:00Z,28.1570,-89.2400,16.9,11111222 
ADCP,ioos:station:wmo:42394:1,2016-01-08T17:30:00Z,28.1570,-89.2400,17.3,11111222 
ADCP,ioos:station:wmo:42394:1,2016-01-08T18:30:00Z,28.1570,-89.2400,17.8,11111222 
ADCP,ioos:station:wmo:42394:1,2016-01-08T19:30:00Z,28.1570,-89.2400,17.4,11111222 
ADCP,ioos:station:wmo:42394:1,2016-01-08T20:30:00Z,28.1570,-89.2400,14.5,11111222 
ADCP,ioos:station:wmo:42394:1,2016-01-08T21:30:00Z,28.1570,-89.2400,15.3,11111222 
ADCP,ioos:station:wmo:42394:1,2016-01-08T22:30:00Z,28.1570,-89.2400,15.4,11111222 
ADCP,ioos:station:wmo:42394:1,2016-01-08T23:30:00Z,28.1570,-89.2400,15.9,11111222 
ADCP,ioos:station:wmo:42394:1,2016-01-09T00:30:00Z,28.1570,-89.2400,16.2,11111222 
ADCP,ioos:station:wmo:42394:1,2016-01-09T01:30:00Z,28.1570,-89.2400,16.5,11111222 
ADCP,ioos:station:wmo:42394:1,2016-01-09T02:30:00Z,28.1570,-89.2400,17.0,11111222 
ADCP,ioos:station:wmo:42394:1,2016-01-09T03:30:00Z,28.1570,-89.2400,16.6,11111222 
ADCP,ioos:station:wmo:42394:1,2016-01-09T04:30:00Z,28.1570,-89.2400,16.4,11111222 
ADCP,ioos:station:wmo:42394:1,2016-01-09T05:30:00Z,28.1570,-89.2400,15.7,11111222 
ADCP,ioos:station:wmo:42394:1,2016-01-09T06:30:00Z,28.1570,-89.2400,16.8,11111222 
ADCP,ioos:station:wmo:42394:1,2016-01-09T07:30:00Z,28.1570,-89.2400,16.6,11111222 
ADCP,ioos:station:wmo:42394:1,2016-01-09T08:30:00Z,28.1570,-89.2400,17.6,11111222 
ADCP,ioos:station:wmo:42394:1,2016-01-09T09:30:00Z,28.1570,-89.2400,18.4,11111222 
ADCP,ioos:station:wmo:42394:1,2016-01-09T10:30:00Z,28.1570,-89.2400,18.9,11111222 
ADCP,ioos:station:wmo:42394:1,2016-01-09T11:30:00Z,28.1570,-89.2400,19.3,11111222 
ADCP,ioos:station:wmo:42394:1,2016-01-09T12:30:00Z,28.1570,-89.2400,19.1,11111222 
ADCP,ioos:station:wmo:42394:1,2016-01-09T13:30:00Z,28.1570,-89.2400,20.6,11111222 
ADCP,ioos:station:wmo:42394:1,2016-01-09T14:30:00Z,28.1570,-89.2400,20.9,11111222 
ADCP,ioos:station:wmo:42394:1,2016-01-09T15:30:00Z,28.1570,-89.2400,18.1,11111222 
ADCP,ioos:station:wmo:42394:1,2016-01-09T16:30:00Z,28.1570,-89.2400,18.5,11111222 
ADCP,ioos:station:wmo:42394:1,2016-01-09T17:30:00Z,28.1570,-89.2400,18.2,11111222 
ADCP,ioos:station:wmo:42394:1,2016-01-09T18:30:00Z,28.1570,-89.2400,17.3,11111222 
ADCP,ioos:station:wmo:42394:1,2016-01-09T19:30:00Z,28.1570,-89.2400,16.9,11111222 
ADCP,ioos:station:wmo:42394:1,2016-01-09T20:30:00Z,28.1570,-89.2400,16.2,11111222 
ADCP,ioos:station:wmo:42394:1,2016-01-09T21:30:00Z,28.1570,-89.2400,16.1,11111222 
ADCP,ioos:station:wmo:42394:1,2016-01-09T22:30:00Z,28.1570,-89.2400,13.1,11111222 
ADCP,ioos:station:wmo:42394:1,2016-01-09T23:30:00Z,28.1570,-89.2400,14.0,11111222 
ADCP,ioos:station:wmo:42394:1,2016-01-10T00:30:00Z,28.1570,-89.2400,10.4,11111222 
ADCP,ioos:station:wmo:42394:1,2016-01-10T01:30:00Z,28.1570,-89.2400,7.6,11111222 
ADCP,ioos:station:wmo:42394:1,2016-01-10T02:30:00Z,28.1570,-89.2400,7.7,11111222 
ADCP,ioos:station:wmo:42394:1,2016-01-10T03:30:00Z,28.1570,-89.2400,9.1,11111222 
ADCP,ioos:station:wmo:42394:1,2016-01-10T04:30:00Z,28.1570,-89.2400,8.2,11111222 
ADCP,ioos:station:wmo:42394:1,2016-01-10T05:30:00Z,28.1570,-89.2400,9.9,11111222 
ADCP,ioos:station:wmo:42394:1,2016-01-10T06:30:00Z,28.1570,-89.2400,9.9,11111222 
ADCP,ioos:station:wmo:42394:1,2016-01-10T07:30:00Z,28.1570,-89.2400,9.7,11111222 
ADCP,ioos:station:wmo:42394:1,2016-01-10T08:30:00Z,28.1570,-89.2400,8.1,11111222 
ADCP,ioos:station:wmo:42394:1,2016-01-10T09:30:00Z,28.1570,-89.2400,8.2,11111222 
ADCP,ioos:station:wmo:42394:1,2016-01-10T10:30:00Z,28.1570,-89.2400,7.7,11111222 
ADCP,ioos:station:wmo:42394:1,2016-01-10T11:30:00Z,28.1570,-89.2400,7.5,11111222 
ADCP,ioos:station:wmo:42394:1,2016-01-10T12:30:00Z,28.1570,-89.2400,8.3,11111222 
ADCP,ioos:station:wmo:42394:1,2016-01-10T13:30:00Z,28.1570,-89.2400,7.1,11111222 
ADCP,ioos:station:wmo:42394:1,2016-01-10T14:30:00Z,28.1570,-89.2400,5.9,11111222 
ADCP,ioos:station:wmo:42394:1,2016-01-10T15:30:00Z,28.1570,-89.2400,5.8,11111222 
ADCP,ioos:station:wmo:42394:1,2016-01-10T16:30:00Z,28.1570,-89.2400,6.1,11111222 
ADCP,ioos:station:wmo:42394:1,2016-01-10T17:30:00Z,28.1570,-89.2400,5.3,11111222 
ADCP,ioos:station:wmo:42394:1,2016-01-10T18:30:00Z,28.1570,-89.2400,6.1,11111222 
ADCP,ioos:station:wmo:42394:1,2016-01-10T19:30:00Z,28.1570,-89.2400,5.8,11111222 
ADCP,ioos:station:wmo:42394:1,2016-01-10T20:30:00Z,28.1570,-89.2400,5.7,11111222 
ADCP,ioos:station:wmo:42394:1,2016-01-10T21:30:00Z,28.1570,-89.2400,5.8,11111222 
ADCP,ioos:station:wmo:42394:1,2016-01-10T22:30:00Z,28.1570,-89.2400,5.9,11111222 
ADCP,ioos:station:wmo:42394:1,2016-01-10T23:30:00Z,28.1570,-89.2400,5.8,11111222 
ADCP,ioos:station:wmo:42394:1,2016-01-11T00:30:00Z,28.1570,-89.2400,5.7,11111222 
ADCP,ioos:station:wmo:42394:1,2016-01-11T01:30:00Z,28.1570,-89.2400,5.8,11111222 
ADCP,ioos:station:wmo:42394:1,2016-01-11T02:30:00Z,28.1570,-89.2400,5.6,11111222 
ADCP,ioos:station:wmo:42394:1,2016-01-11T03:30:00Z,28.1570,-89.2400,5.5,11111222 
ADCP,ioos:station:wmo:42394:1,2016-01-11T04:30:00Z,28.1570,-89.2400,5.1,11111222 
ADCP,ioos:station:wmo:42394:1,2016-01-11T05:30:00Z,28.1570,-89.2400,5.3,11111222 
ADCP,ioos:station:wmo:42394:1,2016-01-11T06:30:00Z,28.1570,-89.2400,5.6,11111222 
ADCP,ioos:station:wmo:42394:1,2016-01-11T07:30:00Z,28.1570,-89.2400,4.9,11111222 
ADCP,ioos:station:wmo:42394:1,2016-01-11T08:30:00Z,28.1570,-89.2400,5.6,11111222 
ADCP,ioos:station:wmo:42394:1,2016-01-11T09:30:00Z,28.1570,-89.2400,4.0,11111222 
ADCP,ioos:station:wmo:42394:1,2016-01-11T10:30:00Z,28.1570,-89.2400,5.3,11111222 
ADCP,ioos:station:wmo:42394:1,2016-01-11T11:30:00Z,28.1570,-89.2400,5.8,11111222 
ADCP,ioos:station:wmo:42394:1,2016-01-11T12:30:00Z,28.1570,-89.2400,6.3,11111222 
ADCP,ioos:station:wmo:42394:1,2016-01-11T13:30:00Z,28.1570,-89.2400,5.5,11111222 
ADCP,ioos:station:wmo:42394:1,2016-01-11T14:30:00Z,28.1570,-89.2400,5.7,11111222 
ADCP,ioos:station:wmo:42394:1,2016-01-11T15:30:00Z,28.1570,-89.2400,8.1,11111222 
ADCP,ioos:station:wmo:42394:1,2016-01-11T16:30:00Z,28.1570,-89.2400,8.2,11111222 
ADCP,ioos:station:wmo:42394:1,2016-01-11T17:30:00Z,28.1570,-89.2400,8.6,11111222 
ADCP,ioos:station:wmo:42394:1,2016-01-11T18:30:00Z,28.1570,-89.2400,8.7,11111222 
ADCP,ioos:station:wmo:42394:1,2016-01-11T19:30:00Z,28.1570,-89.2400,8.4,11111222 
ADCP,ioos:station:wmo:42394:1,2016-01-11T20:30:00Z,28.1570,-89.2400,9.0,11111222 
ADCP,ioos:station:wmo:42394:1,2016-01-11T21:30:00Z,28.1570,-89.2400,8.1,11111222 
ADCP,ioos:station:wmo:42394:1,2016-01-11T22:30:00Z,28.1570,-89.2400,7.3,11111222 
ADCP,ioos:station:wmo:42394:1,2016-01-11T23:30:00Z,28.1570,-89.2400,6.5,11111222 
ADCP,ioos:station:wmo:42394:1,2016-01-12T00:30:00Z,28.1570,-89.2400,6.8,11111222 
ADCP,ioos:station:wmo:42394:1,2016-01-12T01:30:00Z,28.1570,-89.2400,6.4,11111222 
ADCP,ioos:station:wmo:42394:1,2016-01-12T02:30:00Z,28.1570,-89.2400,5.6,11111222 
ADCP,ioos:station:wmo:42394:1,2016-01-12T03:30:00Z,28.1570,-89.2400,6.5,11111222 
ADCP,ioos:station:wmo:42394:1,2016-01-12T04:30:00Z,28.1570,-89.2400,7.3,11111222 
ADCP,ioos:station:wmo:42394:1,2016-01-12T05:30:00Z,28.1570,-89.2400,8.0,11111222 
ADCP,ioos:station:wmo:42394:1,2016-01-12T06:30:00Z,28.1570,-89.2400,9.0,11111222 
ADCP,ioos:station:wmo:42394:1,2016-01-12T07:30:00Z,28.1570,-89.2400,10.1,11111222 
ADCP,ioos:station:wmo:42394:1,2016-01-12T08:30:00Z,28.1570,-89.2400,9.4,11111222 
ADCP,ioos:station:wmo:42394:1,2016-01-12T09:30:00Z,28.1570,-89.2400,9.5,11111222 
ADCP,ioos:station:wmo:42394:1,2016-01-12T10:30:00Z,28.1570,-89.2400,10.2,11111222 
ADCP,ioos:station:wmo:42394:1,2016-01-12T11:30:00Z,28.1570,-89.2400,9.8,11111222 
ADCP,ioos:station:wmo:42394:1,2016-01-12T12:30:00Z,28.1570,-89.2400,8.7,11111222 
ADCP,ioos:station:wmo:42394:1,2016-01-12T13:30:00Z,28.1570,-89.2400,9.2,11111222 
ADCP,ioos:station:wmo:42394:1,2016-01-12T14:30:00Z,28.1570,-89.2400,8.9,11111222 
ADCP,ioos:station:wmo:42394:1,2016-01-12T15:30:00Z,28.1570,-89.2400,10.6,11111222 
ADCP,ioos:station:wmo:42394:1,2016-01-12T16:30:00Z,28.1570,-89.2400,10.0,11111222 
ADCP,ioos:station:wmo:42394:1,2016-01-12T17:30:00Z,28.1570,-89.2400,9.4,11111222 
ADCP,ioos:station:wmo:42394:1,2016-01-12T18:30:00Z,28.1570,-89.2400,10.7,11111222 
ADCP,ioos:station:wmo:42394:1,2016-01-12T19:30:00Z,28.1570,-89.2400,9.7,11111222 
ADCP,ioos:station:wmo:42394:1,2016-01-12T20:30:00Z,28.1570,-89.2400,7.2,11111222 
ADCP,ioos:station:wmo:42394:1,2016-01-12T21:30:00Z,28.1570,-89.2400,5.4,11111222 
ADCP,ioos:station:wmo:42394:1,2016-01-12T22:30:00Z,28.1570,-89.2400,5.0,11111222 
ADCP,ioos:station:wmo:42394:1,2016-01-12T23:30:00Z,28.1570,-89.2400,6.4,11111222 
ADCP,ioos:station:wmo:42394:1,2016-01-13T00:30:00Z,28.1570,-89.2400,6.2,11111222 